GW4497 Weather Reports


Display with metric or nautical units.
time (UTC)temp
F
wind
direction
speed
MPH
gust
MPH
rain 1hr
in
rain 24hr
in
rain mn
in
humidity
%
barometer
mb
20260506175003 62 153 8.0 15.0 0.00 0.00 0.00 75 1011.9
20260506174503 62 157 7.0 15.0 0.00 0.00 0.00 73 1011.6
20260506174003 62 146 7.0 13.0 0.00 0.00 0.00 74 1011.9
20260506173503 62 140 6.0 13.0 0.00 0.00 0.00 73 1011.7
20260506173003 63 153 6.0 15.0 0.00 0.00 0.00 73 1011.6
20260506172503 62 146 9.0 15.0 0.00 0.00 0.00 73 1011.7
20260506172003 62 149 9.0 14.0 0.00 0.00 0.00 73 1011.5
20260506171503 63 167 7.0 17.0 0.00 0.00 0.00 71 1011.5
20260506171003 64 204 6.0 17.0 0.00 0.00 0.00 70 1011.6
20260506170503 64 212 5.0 11.0 0.00 0.00 0.00 68 1011.5
20260506170003 64 207 5.0 11.0 0.00 0.00 0.00 65 1011.3
20260506165503 64 168 5.0 14.0 0.00 0.00 0.00 61 1011.4
20260506165003 64 136 6.0 14.0 0.00 0.00 0.00 60 1011.5
20260506164717 64 151 7.0 14.0 0.00 0.00 0.00 62 1011.5
20260506164010 64 197 7.0 13.0 0.00 0.00 0.00 59 1011.3
20260506162507 63 135 10.0 18.0 0.00 0.00 0.00 60 1011.3
20260506162230 63 143 9.0 17.0 0.00 0.00 0.00 58 1011.4
20260506161011 63 143 6.0 16.0 0.00 0.00 0.00 58 1011.4
20260506160018 63 117 7.0 14.0 0.00 0.00 0.00 60 1011.2
20260506155507 63 117 7.0 14.0 0.00 0.00 0.00 59 1011.3
20260506155014 63 137 9.0 16.0 0.00 0.00 0.00 58 1011.2
20260506154003 63 133 10.0 20.0 0.00 0.00 0.00 56 1011.4
20260506153503 63 143 9.0 19.0 0.00 0.00 0.00 55 1011.2
20260506153003 64 143 9.0 21.0 0.00 0.00 0.00 55 1011.0
20260506152718 63 141 9.0 21.0 0.00 0.00 0.00 54 1011.3
20260506152003 64 155 7.0 16.0 0.00 0.00 0.00 54 1011.5
20260506151503 64 161 7.0 16.0 0.00 0.00 0.00 56 1011.4
20260506151003 64 180 7.0 16.0 0.00 0.00 0.00 56 1011.4
20260506150503 64 198 6.0 14.0 0.00 0.00 0.00 54 1011.3
20260506150003 64 155 7.0 19.0 0.00 0.00 0.00 55 1011.5
20260506145503 63 154 8.0 19.0 0.00 0.00 0.00 55 1011.4
20260506145003 64 184 7.0 18.0 0.00 0.00 0.00 54 1011.3
20260506144503 64 153 9.0 18.0 0.00 0.00 0.00 57 1011.6
20260506144003 63 141 11.0 18.0 0.00 0.00 0.00 58 1011.5
20260506143503 64 156 9.0 17.0 0.00 0.00 0.00 57 1011.6
20260506143003 63 176 9.0 17.0 0.00 0.00 0.00 56 1011.2
20260506142718 64 179 8.0 17.0 0.00 0.00 0.00 56 1011.7
20260506142217 64 177 8.0 17.0 0.00 0.00 0.00 56 1011.6
20260506141503 64 152 10.0 18.0 0.00 0.00 0.00 56 1011.6
20260506141003 64 158 9.0 18.0 0.00 0.00 0.00 56 1011.5
20260506140503 63 168 7.0 16.0 0.00 0.00 0.00 56 1011.7
20260506140003 64 147 8.0 20.0 0.00 0.00 0.00 55 1011.8
20260506135503 64 131 9.0 22.0 0.00 0.00 0.00 56 1011.8
20260506135003 64 139 8.0 22.0 0.00 0.00 0.00 57 1011.6
20260506134503 64 132 8.0 16.0 0.00 0.00 0.00 57 1011.8
20260506134003 64 127 9.0 21.0 0.00 0.00 0.00 58 1011.8
20260506133503 64 139 8.0 21.0 0.00 0.00 0.00 57 1011.9
20260506133216 64 133 8.0 15.0 0.00 0.00 0.00 58 1011.8
20260506132503 64 132 9.0 18.0 0.00 0.00 0.00 57 1012.0
20260506132003 64 150 8.0 19.0 0.00 0.00 0.00 57 1012.0
20260506131503 65 180 6.0 19.0 0.00 0.00 0.00 55 1012.1
20260506131003 64 170 6.0 20.0 0.00 0.00 0.00 55 1012.2
20260506130503 64 139 8.0 22.0 0.00 0.00 0.00 55 1012.2
20260506130003 63 140 9.0 22.0 0.00 0.00 0.00 55 1012.0
20260506125503 65 156 7.0 16.0 0.00 0.00 0.00 53 1012.2
20260506125003 65 173 7.0 14.0 0.00 0.00 0.00 54 1012.2
20260506124503 63 169 8.0 15.0 0.00 0.00 0.00 56 1012.2
20260506124003 64 148 8.0 18.0 0.00 0.00 0.00 55 1012.3
20260506123503 63 147 9.0 18.0 0.00 0.00 0.00 57 1012.1
20260506123003 64 138 9.0 17.0 0.00 0.00 0.00 55 1012.2
20260506122503 64 156 9.0 17.0 0.00 0.00 0.00 55 1012.1
20260506122003 64 175 9.0 15.0 0.00 0.00 0.00 54 1012.2
20260506121503 65 168 8.0 15.0 0.00 0.00 0.00 53 1012.2
20260506121003 65 175 7.0 14.0 0.00 0.00 0.00 52 1012.1
20260506120503 64 177 7.0 17.0 0.00 0.00 0.00 52 1012.3
20260506120003 65 158 7.0 17.0 0.00 0.00 0.00 52 1012.3
20260506115503 65 143 6.0 16.0 0.00 0.00 0.00 53 1012.1
20260506115003 64 154 6.0 15.0 0.00 0.00 0.00 52 1012.1
20260506114503 64 164 8.0 15.0 0.00 0.00 0.00 53 1012.2
20260506114003 64 153 7.0 14.0 0.00 0.00 0.00 53 1012.2
20260506113503 64 152 6.0 14.0 0.00 0.00 0.00 52 1012.2
20260506113003 65 172 5.0 13.0 0.00 0.00 0.00 52 1012.0
20260506112503 64 171 6.0 16.0 0.00 0.00 0.00 53 1012.1
20260506112218 64 160 7.0 16.0 0.00 0.00 0.00 53 1012.6
20260506111503 65 167 9.0 16.0 0.00 0.00 0.00 54 1012.3
20260506111218 63 163 8.0 15.0 0.00 0.00 0.00 54 1012.6
20260506110503 64 152 8.0 16.0 0.00 0.00 0.00 53 1012.6
20260506110003 64 156 9.0 16.0 0.00 0.00 0.00 53 1012.5
20260506105503 63 159 8.0 15.0 0.00 0.00 0.00 54 1012.6
20260506105003 64 152 7.0 16.0 0.00 0.00 0.00 54 1012.2
20260506104716 64 147 8.0 18.0 0.00 0.00 0.00 54 1012.5
20260506104003 64 144 7.0 18.0 0.00 0.00 0.00 55 1012.6
20260506103503 63 141 8.0 17.0 0.00 0.00 0.00 56 1012.6
20260506103003 64 154 7.0 15.0 0.00 0.00 0.00 56 1012.6
20260506102718 64 162 7.0 15.0 0.00 0.00 0.00 56 1012.7
20260506102217 64 162 7.0 14.0 0.00 0.00 0.00 58 1012.3
20260506101503 63 147 8.0 17.0 0.00 0.00 0.00 60 1012.7
20260506101003 63 164 6.0 15.0 0.00 0.00 0.00 61 1012.5
20260506100503 64 167 5.0 13.0 0.00 0.00 0.00 61 1012.7
20260506100217 63 178 5.0 11.0 0.00 0.00 0.00 60 1012.7
20260506095503 63 202 5.0 11.0 0.00 0.00 0.00 61 1012.6
20260506095003 62 213 4.0 11.0 0.00 0.00 0.00 61 1013.0
20260506094503 62 250 5.0 11.0 0.00 0.00 0.00 61 1012.8
20260506094003 63 248 5.0 11.0 0.00 0.00 0.00 63 1012.8
20260506093503 63 230 5.0 11.0 0.00 0.00 0.00 63 1012.8
20260506093003 63 208 4.0 11.0 0.00 0.00 0.00 64 1012.8
20260506092718 62 180 4.0 11.0 0.00 0.00 0.00 65 1012.8
20260506092003 61 173 5.0 13.0 0.00 0.01 0.00 66 1012.9
20260506091503 62 177 5.0 13.0 0.00 0.01 0.00 64 1012.9
20260506091003 62 169 6.0 12.0 0.00 0.01 0.00 61 1012.5
20260506090718 62 159 6.0 12.0 0.00 0.01 0.00 62 1012.7
20260506090003 62 175 6.0 11.0 0.00 0.01 0.00 65 1012.8
20260506085503 62 209 4.0 11.0 0.00 0.01 0.00 62 1012.6
20260506085003 63 146 3.0 13.0 0.00 0.01 0.00 58 1012.6
20260506084718 61 132 4.0 13.0 0.00 0.01 0.00 58 1012.5
20260506084003 60 147 7.0 14.0 0.00 0.01 0.00 64 1012.6
20260506083503 61 156 6.0 14.0 0.00 0.01 0.00 67 1012.5
20260506083003 62 174 4.0 8.0 0.00 0.01 0.00 68 1012.6
20260506082503 61 207 3.0 8.0 0.00 0.01 0.00 68 1012.6
20260506082003 60 187 4.0 8.0 0.00 0.01 0.00 69 1012.3
20260506081503 61 154 3.0 8.0 0.00 0.01 0.00 68 1012.6
20260506081003 61 136 3.0 7.0 0.00 0.01 0.00 66 1012.6
20260506080503 60 133 3.0 7.0 0.00 0.01 0.00 66 1012.5
20260506080216 61 161 3.0 6.0 0.00 0.01 0.00 66 1012.6
20260506073503 58 175 3.0 6.0 0.00 0.01 0.00 67 1012.5
20260506073003 58 163 2.0 4.0 0.00 0.01 0.00 67 1012.5
20260506072503 59 26 2.0 5.0 0.00 0.01 0.00 66 1012.3
20260506072003 57 351 3.0 6.0 0.00 0.01 0.00 68 1012.2
20260506071717 57 340 3.0 6.0 0.00 0.01 0.00 68 1012.3
20260506071003 57 351 3.0 7.0 0.00 0.01 0.00 69 1012.5
20260506070503 56 356 2.0 5.0 0.00 0.01 0.00 70 1012.6
20260506070218 56 347 2.0 6.0 0.00 0.01 0.00 71 1012.3
20260506062503 52 88 1.0 4.0 0.00 0.01 0.00 82 1012.2
20260506062218 52 340 1.0 4.0 0.00 0.01 0.00 82 1012.1
20260506061503 51 29 2.0 8.0 0.00 0.01 0.00 84 1012.1
20260506061003 51 126 2.0 8.0 0.00 0.01 0.00 86 1012.3
20260506060503 51 132 2.0 4.0 0.00 0.01 0.00 87 1012.1
20260506060218 50 160 1.0 3.0 0.00 0.01 0.00 87 1011.9
20260506051217 48 63 1.0 3.0 0.00 0.01 0.00 90 1011.8
20260506050503 47 307 1.0 3.0 0.00 0.01 0.00 90 1011.8
20260506045003 46 152 1.0 4.0 0.00 0.01 0.00 90 1011.7
20260506044503 46 151 1.0 5.0 0.00 0.01 0.00 90 1011.4
20260506044003 46 152 2.0 5.0 0.00 0.01 0.00 90 1011.7
20260506043503 46 138 1.0 3.0 0.00 0.01 0.00 90 1011.6
20260506043003 46 98 1.0 2.0 0.00 0.01 0.00 90 1011.5
20260506042503 46 101 1.0 4.0 0.00 0.01 0.00 90 1011.4
20260506042217 46 110 1.0 4.0 0.00 0.01 0.00 90 1011.4
20260506041503 46 128 1.0 4.0 0.00 0.02 0.00 90 1011.3
20260506041003 46 148 1.0 3.0 0.00 0.02 0.00 90 1011.5
20260506040503 46 281 1.0 3.0 0.00 0.02 0.00 90 1011.3
20260506040217 46 250 1.0 3.0 0.00 0.02 0.00 90 1011.3
20260506035503 46 135 1.0 3.0 0.00 0.02 0.00 90 1011.3
20260506035003 46 53 0.0 2.0 0.00 0.02 0.00 90 1011.2
20260506034718 46 319 0.0 2.0 0.00 0.02 0.00 90 1011.5
20260506034217 46 251 1.0 2.0 0.00 0.02 0.00 90 1011.3
20260506033503 46 103 2.0 5.0 0.00 0.02 0.00 90 1011.2
20260506033003 46 114 1.0 5.0 0.00 0.02 0.00 90 1011.5
20260506032503 46 196 1.0 3.0 0.00 0.02 0.00 90 1011.4
20260506032217 45 197 1.0 3.0 0.00 0.02 0.00 90 1011.4
20260506031503 46 211 1.0 3.0 0.00 0.02 0.00 90 1011.4
20260506031003 46 211 1.0 3.0 0.00 0.02 0.00 90 1011.5
20260506030503 46 151 1.0 3.0 0.00 0.02 0.00 90 1011.5
20260506030003 46 149 1.0 3.0 0.00 0.02 0.00 90 1011.5
20260506025503 46 249 1.0 2.0 0.00 0.02 0.00 89 1011.4
20260506025003 46 156 1.0 3.0 0.00 0.02 0.00 90 1011.6
20260506024503 46 132 1.0 3.0 0.00 0.02 0.00 90 1011.4
20260506024003 46 149 1.0 3.0 0.00 0.02 0.00 90 1011.3
20260506023503 46 218 1.0 3.0 0.00 0.02 0.00 90 1011.5
20260506023003 46 153 1.0 3.0 0.00 0.02 0.00 89 1011.4
20260506022503 46 356 1.0 2.0 0.00 0.02 0.00 90 1011.3
20260506022003 46 6 1.0 3.0 0.00 0.02 0.00 89 1011.2
20260506021503 46 128 1.0 3.0 0.00 0.02 0.00 89 1011.3
20260506021003 47 134 1.0 3.0 0.00 0.02 0.00 89 1011.2
20260506020504 46 157 1.0 3.0 0.00 0.02 0.00 89 1011.3
20260506020003 47 12 2.0 4.0 0.00 0.02 0.00 89 1011.3
20260506015503 47 307 1.0 4.0 0.00 0.02 0.00 89 1011.2
20260506015003 47 259 1.0 3.0 0.00 0.02 0.00 89 1011.3
20260506014503 47 133 2.0 4.0 0.00 0.02 0.00 89 1011.3
20260506014003 47 186 2.0 4.0 0.00 0.02 0.00 89 1011.2
20260506013717 47 191 1.0 4.0 0.00 0.02 0.00 89 1011.2
20260506013003 47 213 1.0 3.0 0.00 0.02 0.00 89 1011.1
20260506012503 48 16 1.0 3.0 0.00 0.02 0.00 89 1011.0
20260506012218 48 333 1.0 3.0 0.00 0.02 0.00 89 1011.2
20260506011503 48 109 2.0 4.0 0.00 0.02 0.00 88 1011.2
20260506011003 48 147 2.0 4.0 0.00 0.02 0.00 88 1011.0
20260506010717 48 282 1.0 4.0 0.00 0.02 0.00 88 1011.2
20260506010003 48 24 1.0 2.0 0.00 0.02 0.00 88 1011.2
20260506005503 49 261 1.0 2.0 0.00 0.02 0.00 88 1011.2
20260506005003 49 138 1.0 2.0 0.00 0.02 0.00 88 1011.3
20260506004504 49 56 1.0 2.0 0.00 0.02 0.00 88 1011.2
20260506004003 49 245 1.0 3.0 0.00 0.02 0.00 88 1011.3
20260506003503 49 136 1.0 4.0 0.00 0.02 0.00 87 1011.2
20260506003003 50 125 2.0 4.0 0.00 0.02 0.00 87 1011.2
20260506002503 50 56 2.0 4.0 0.00 0.02 0.00 87 1011.2
20260506002217 50 328 2.0 4.0 0.00 0.02 0.00 87 1011.2
20260506001503 50 355 1.0 4.0 0.00 0.02 0.00 87 1011.3
20260506001003 51 82 1.0 4.0 0.00 0.02 0.00 86 1011.0
20260506000503 51 164 1.0 3.0 0.00 0.02 0.00 86 1011.5
20260506000003 51 6 1.0 4.0 0.00 0.02 0.00 86 1011.4
20260505235503 51 70 2.0 4.0 0.00 0.02 0.00 86 1011.3
20260505235003 51 123 2.0 4.0 0.00 0.02 0.00 85 1011.5
20260505234503 52 140 1.0 4.0 0.00 0.02 0.00 85 1011.6
20260505234003 52 140 1.0 4.0 0.00 0.02 0.00 84 1011.3
20260505233503 52 317 1.0 3.0 0.00 0.02 0.00 84 1011.4
20260505233003 53 350 1.0 3.0 0.00 0.02 0.00 83 1011.2
20260505232718 53 47 2.0 3.0 0.00 0.02 0.00 83 1011.2
20260505232003 53 95 2.0 4.0 0.00 0.02 0.00 82 1011.3
20260505231503 53 54 1.0 3.0 0.00 0.02 0.00 82 1011.2
20260505231217 53 12 1.0 4.0 0.00 0.02 0.00 82 1011.6
20260505230503 53 17 2.0 4.0 0.00 0.02 0.00 82 1011.5
20260505230003 53 60 3.0 6.0 0.00 0.02 0.00 80 1011.2
20260505225718 53 64 3.0 6.0 0.00 0.02 0.00 80 1011.4
20260505225003 53 130 2.0 5.0 0.00 0.02 0.00 81 1011.4
20260505224718 54 160 2.0 4.0 0.00 0.02 0.00 81 1011.7
20260505224003 54 143 1.0 3.0 0.00 0.02 0.00 81 1011.5
20260505223503 54 167 1.0 3.0 0.00 0.02 0.00 80 1011.8
20260505223003 54 11 1.0 3.0 0.00 0.02 0.00 78 1011.8
20260505222718 54 18 1.0 4.0 0.00 0.02 0.00 78 1011.5
20260505222003 54 57 4.0 8.0 0.00 0.02 0.00 78 1011.7
20260505221503 53 70 5.0 8.0 0.00 0.02 0.00 79 1012.0
20260505221217 53 73 4.0 8.0 0.00 0.02 0.00 79 1012.0
20260505220503 54 113 3.0 6.0 0.00 0.02 0.00 79 1012.1
20260505220217 54 124 2.0 5.0 0.00 0.02 0.00 79 1012.0
20260505215503 54 13 1.0 4.0 0.00 0.02 0.02 78 1011.9
20260505215003 54 64 2.0 4.0 0.00 0.02 0.02 78 1012.0
20260505214503 54 108 2.0 4.0 0.00 0.02 0.02 79 1011.9
20260505214003 53 147 2.0 4.0 0.00 0.02 0.02 79 1012.1
20260505213503 54 154 2.0 4.0 0.00 0.02 0.02 79 1011.8
20260505213003 54 156 1.0 4.0 0.00 0.02 0.02 78 1011.9
20260505212503 54 40 1.0 4.0 0.00 0.02 0.02 78 1011.8
20260505212003 54 43 2.0 5.0 0.00 0.02 0.02 76 1011.7
20260505211503 54 57 2.0 5.0 0.00 0.02 0.02 75 1011.8
20260505211003 55 58 2.0 5.0 0.00 0.02 0.02 74 1011.7
20260505210503 54 52 3.0 6.0 0.00 0.02 0.02 75 1011.7
20260505210003 54 57 3.0 6.0 0.00 0.02 0.02 77 1011.7
20260505205503 54 85 2.0 6.0 0.00 0.02 0.02 77 1011.6
20260505205003 54 122 2.0 4.0 0.00 0.02 0.02 77 1011.6
20260505204503 54 119 2.0 4.0 0.00 0.02 0.02 77 1011.6
20260505204003 54 339 2.0 4.0 0.00 0.02 0.02 76 1011.4
20260505203503 55 10 2.0 4.0 0.00 0.02 0.02 74 1011.3
20260505203003 55 351 2.0 4.0 0.00 0.02 0.02 76 1011.2
20260505202503 55 314 2.0 4.0 0.00 0.02 0.02 74 1010.9
20260505202003 55 328 2.0 4.0 0.00 0.03 0.02 75 1010.9
20260505201503 56 9 2.0 4.0 0.00 0.04 0.02 73 1010.9
20260505201003 57 64 2.0 6.0 0.00 0.04 0.02 70 1010.7
20260505200503 57 26 3.0 6.0 0.00 0.04 0.02 68 1010.5
20260505200003 57 344 2.0 4.0 0.00 0.04 0.02 69 1010.6
20260505195717 58 326 2.0 4.0 0.00 0.04 0.02 69 1010.5
20260505195003 58 230 2.0 6.0 0.00 0.04 0.02 68 1010.5
20260505194717 58 213 2.0 6.0 0.00 0.04 0.02 68 1010.6
20260505194003 58 216 3.0 6.0 0.00 0.04 0.02 70 1010.5
20260505193717 58 242 3.0 6.0 0.00 0.04 0.02 71 1010.6
20260505193003 57 281 4.0 11.0 0.00 0.04 0.02 73 1010.5
20260505192503 57 293 7.0 14.0 0.00 0.04 0.02 74 1010.5
20260505192003 57 302 7.0 14.0 0.00 0.04 0.02 73 1010.7
20260505191503 57 303 6.0 15.0 0.00 0.04 0.02 75 1010.9
20260505191003 57 290 4.0 15.0 0.00 0.04 0.02 75 1010.6
20260505190503 58 292 2.0 6.0 0.00 0.04 0.02 73 1010.8
20260505190004 58 332 2.0 6.0 0.00 0.04 0.02 72 1010.5
20260505185503 58 349 3.0 6.0 0.00 0.04 0.02 72 1010.4
20260505185003 58 1 2.0 6.0 0.00 0.04 0.02 71 1010.4
20260505184716 58 18 2.0 6.0 0.00 0.04 0.02 70 1010.2
20260505184003 58 330 3.0 9.0 0.00 0.04 0.02 71 1010.3
20260505183503 58 309 3.0 9.0 0.00 0.04 0.02 71 1010.4
20260505183003 58 307 2.0 5.0 0.00 0.04 0.02 71 1010.3
20260505182503 59 278 1.0 3.0 0.00 0.04 0.02 69 1010.3
20260505182003 58 264 1.0 3.0 0.00 0.04 0.02 69 1010.4
20260505181503 59 159 2.0 5.0 0.00 0.04 0.02 68 1010.2
20260505181217 59 142 2.0 5.0 0.00 0.04 0.02 68 1010.3
20260505180503 59 43 2.0 6.0 0.00 0.04 0.02 67 1010.4
20260505180003 59 58 2.0 6.0 0.00 0.04 0.02 66 1010.6
20260505175503 59 6 2.0 6.0 0.00 0.04 0.02 66 1010.8